Regional Weather Roundup
Issued by NWS

Home | Current Version | Previous Version | Text Only | Print | Product List | Glossary Off
Versions: 1 2 3 4 5 6 7 8 9 10 11 12 13 14 15 16 17 18 19 20 21 22 23 24 25 26 27 28 29 30 31 32 33 34 35 36 37 38 39 40 41 42 43 44 45 46 47 48 49 50

000
ASUS43 KLMK 300602
RWRKY
KENTUCKY REGIONAL WEATHER ROUNDUP
NATIONAL WEATHER SERVICE LOUISVILLE KY
200 AM EDT THU JUL 30 2015

NOTE "FAIR" INDICATES FEW OR NO CLOUDS BELOW 12,000 FEET
WITH NO SIGNIFICANT WEATHER AND/OR OBSTRUCTIONS TO VISIBILITY.

KYZ001>023-026-027-061>063-070>075-300700-
WESTERN AND SOUTH CENTRAL KENTUCKY

CITY           SKY/WX    TMP DP  RH WIND       PRES   REMARKS
PADUCAH        PTCLDY    79  73  82 N6        30.06R
HENDERSON      MOCLDY    77  70  78 NW6       30.04S
OWENSBORO      MOCLDY    79  69  71 N9        30.04S
HOPKINSVILLE   PTCLDY    73  71  91 N2        30.03F
BOWLING GREEN  MOCLDY    75  72  90 CALM      30.03F
GLASGOW        NOT AVBL
$$

KYZ024-025-028>034-038-045-046-053-300700-
NORTH CENTRAL KENTUCKY

CITY           SKY/WX    TMP DP  RH WIND       PRES   REMARKS
LOUISVILLE/SDF CLOUDY    79  75  87 NW9       30.01S
LOUISVILLE/LOU CLOUDY    78  74  87 CALM      30.02S
FORT KNOX      CLOUDY    73  71  96 W5        30.01F
$$

KYZ035>037-039>044-047>052-055>060-089>105-300700-
NORTHEAST KENTUCKY

CITY           SKY/WX    TMP DP  RH WIND       PRES   REMARKS
LEXINGTON      MOCLDY    72  70  93 VRB3      30.02S
COVINGTON      MOCLDY    75  70  84 NW10      30.01R
FRANKFORT      CLOUDY    73  71  93 W5        30.01S
$$

KYZ054-064>069-076>088-106>120-300700-
SOUTHEAST KENTUCKY

CITY           SKY/WX    TMP DP  RH WIND       PRES   REMARKS
JACKSON        MOCLDY    74  70  87 VRB3      30.03S
LONDON         MOCLDY    74  66  76 CALM      30.03S
SOMERSET       NOT AVBL
MIDDLESBORO    PTCLDY    74  73  96 CALM      30.02S
MONTICELLO     CLOUDY    71  71 100 CALM      30.06S
$$




USA.gov is the U.S. government's official web portal to all federal, state and local government web resources and services.